sat.trackr.live / text

‹ back to catalog

STARLINK-5542

NORAD 57075 · 2023-088AD

PAYLOAD ACTIVE UNKNOWN

§ Identity

Operator
Country
US
Launch date
2023-06-22
Launch site
AFWTR
Launch vehicle
Mass (kg)
RCS (m²)

Purposes: comms

External: N2YO · Heavens-Above · Gunter

§ Orbital elements

Epoch: 2026-09-19T21:07:01.530912Z

Period
94.27 min
Inclination
43.0057°
Eccentricity
0.0001469
Mean motion
15.27576663 rev/d
Perigee alt
482.1 km
Apogee alt
484.1 km
Semi-major
6,861.2 km
B*
2.3083e-5
RAAN
79.0660°
Arg perigee
275.5684°
Mean anomaly
84.5000°
Rev number
18,020

§ Raw data

STARLINK-55421 57075U 23088AD  26262.87987883  .00000373  00000+0  23083-4 0  99932 57075  43.0057  79.0660 0001469 275.5684  84.5000 15.27576663180206

JSON: /api/v1/satellites/57075 · /tle

For live sub-satellite position, see the globe view (requires WebGL).

§ Visibility from observer

Set your observer location to see the next 7 days of passes ≥ 10°. The values pass through the URL so the page stays shareable.

No JS? Fill the form by hand. The geolocation button needs JavaScript.